Preview of NWS' New Version of Forecast
This preview is not operational and should not be used for support decisions.

Regional Weather Roundup (RWR)

Issued by Gray - Portland, ME (GYX)

                            
000
ASUS41 KGYX 201310
RWRGYX
WEATHER ROUNDUP FOR MAINE AND NEW HAMPSHIRE
NATIONAL WEATHER SERVICE GRAY ME
900 AM EDT TUE AUG 20 2019

MEZ002-005-006-010-012-015-018-020-021-024-026-027-029-201400-
MAINE
  
CITY           SKY/WX    TMP DP  RH WIND       PRES   REMARKS
PORTLAND       FAIR      76  62  62 N6        30.06S                  
SANFORD        FAIR      76  64  66 NW5       30.08R                  
BAR HARBOR     FAIR      71  64  78 N7        30.03R                  
WISCASSET      FAIR      75  63  66 VRB3      30.06S                  
ROCKLAND       FAIR      73  63  70 MISG      30.04R                  
FRYEBURG       FAIR      73  60  63 CALM      30.09R                  
LEWISTONAUBURN FAIR      73  62  68 NW6       30.07S                  
AUGUSTA        FAIR      73  63  70 NW5       30.07R                  
WATERVILLE     FAIR      71  59  65 N6        30.04R                  
BANGOR         FAIR      73  62  68 N10       30.04R                  
GREENVILLE       N/A     66  56  70 NW5       30.06S                  
MILLINOCKET    FAIR      72  60  66 NW3       30.05R                  
HOULTON        FAIR      71  57  61 VRB6      30.01R                  
PRESQUE ISLE   FAIR      68  57  68 NW5       30.02S                  
FRENCHVILLE    FAIR      64  57  78 SW3       29.99S                  
CARIBOU        FAIR      69  58  67 SW7       29.99F                  
$$

NHZ002-005-008-009-011-012-014-201400-
NEW HAMPSHIRE
  
CITY           SKY/WX    TMP DP  RH WIND       PRES   REMARKS
PORTSMOUTH     MOSUNNY   74  62  66 NW7       30.05S                  
ROCHESTER      FAIR      74  61  63 NW10      30.07S                  
NASHUA         FAIR      74  63  68 NW8       30.09S                  
MANCHESTER     FAIR      76  58  53 NW7       30.07S                  
CONCORD        FAIR      73  59  61 NW6       30.09S                  
LACONIA        FAIR      72  60  66 SW6       30.10S                  
PLYMOUTH       FAIR      70  61  73 CALM      30.09S                  
BERLIN         FAIR      71  57  61 CALM      30.11S                  
WHITEFIELD     FAIR      69  61  75 CALM      30.12R                  
JAFFREY        FAIR      73  57  57 CALM      30.14R                  
KEENE          FAIR      67  60  78 CALM      30.12S                  
LEBANON        FAIR      70  58  65 CALM      30.11R                  
MT WASHINGTON  MOSUNNY   48  21  34 NW29        N/A                   
$$

VTZ005-007-008-201400-
VERMONT
  
CITY           SKY/WX    TMP DP  RH WIND       PRES   REMARKS
ST JOHNSBURY     N/A     62  61  96 MISG      30.10R                  
MONTPELIER     FAIR      66  58  75 CALM      30.16R                  
BURLINGTON     FAIR      71  58  63 E3        30.10R                  
$$

MAZ007-012-024-CTZ003-RIZ002-NYZ038-NYZ072-201400-
SOUTHERN NEW ENGLAND AND NY
  
CITY           SKY/WX    TMP DP  RH WIND       PRES   REMARKS
BOSTON         FAIR      80  58  46 NW10      30.07R                  
WORCESTER      FAIR      72  58  61 NW7       30.12S                  
NANTUCKET      FAIR      80  66  62 NW9       30.06S                  
PROVIDENCE     FAIR      77  65  66 W5        30.09S                  
HARTFORD       FAIR      77  59  53 W8        30.11R                  
ALBANY         FAIR      74  61  63 CALM      30.12R                  
NEW YORK CITY  FAIR      78  61  55 NE12      30.10S                  
$$

ANZ081-ANZ082-ANZ150-NHZ014-MEZ023>029-201400-
COASTAL MARINE OBSERVATIONS
  
STATION/POSITION TIME  TEMP    WIND        PRES    WAVE
                       AIR SEA DIR/SP/G            HT/PER
                 (UTC) (F)     (DEG/KT/KT) (MB)    (FT/S)
MATINICUS ROCK   1250   63                 1016.6R
ISLE OF SHOALS   1200   69     320/ 11/ 12 1017.2R
JEFFREYS LEDGE   1238      65                N/A     2/11
CASHES LEDGE BUO 1250   64 62  310/  8/  8 1017.5R   2/ 7
GEORGES BANK BUO 1250   70 73  280/ 12/ 14 1016.9S   3/ 8
$$

.............KEY..............
   WCI - WIND CHILL
   TC  - TEMPERATURE IN CELSIUS
   VSB - VISIBILITY IN MILES
   HX  - HEAT INDEX
   FAIR- INDICATES FEW OR NO CLOUDS BELOW 12,000 FT, WITH NO 
         SIGNIFICANT WEATHER AND/OR OBSTRUCTIONS TO VISIBILITY.